Regional Weather Roundup
Issued by NWS

Home | Current Version | Previous Version | Text Only | Print | Product List | Glossary Off
Versions: 1 2 3 4 5 6 7 8 9 10 11 12 13 14 15 16 17 18 19 20 21 22 23 24 25 26 27 28 29 30 31 32 33 34 35 36 37 38 39 40 41 42 43 44 45 46 47 48 49 50

000
ASUS43 KIND 060309
RWRIN

WEATHER ROUNDUP FOR INDIANA
NATIONAL WEATHER SERVICE INDIANAPOLIS IN
1000 PM EST MON DEC 05 2016

NOTE: "FAIR" INDICATES FEW OR NO CLOUDS BELOW 12,000 FEET WITH NO
SIGNIFICANT WEATHER AND/OR OBSTRUCTIONS TO VISIBILITY.

* - STATION DOES NOT REPORT WEATHER SUCH AS PRECIPITATION OR FOG.

+ - STATION NOT QUALITY CONTROLLED BY THE NATIONAL WEATHER SERVICE.
    USE DATA WITH CAUTION...ESPECIALLY DEWPOINT AND RELATIVE
    HUMIDITY OBSERVATIONS.

INZ001>003-010>013-019-020-060400-
NORTHWEST INDIANA

CITY           SKY/WX    TMP DP  RH WIND       PRES   REMARKS
GARY /AIRPORT/ CLOUDY    34  34 100 SE8       29.99R FOG     WCI  27
KNOX *+        PTCLDY    30  19  64 E5        29.99S WCI  25
LA PORTE +     CLOUDY   N/A N/A N/A E9        29.99S HAZE
MICHIGAN CITY+ CLOUDY    32  32 100 SE5       30.00S WCI  27
MONTICELLO +   CLEAR     32  29  88 E6        29.94F WCI  27
RENSSELAER +   CLEAR     32  32 100 NE8       29.95F FOG     WCI  25
VALPARAISO     MOCLDY    31  29  92 E8        29.98F FOG     WCI  23

$$

LMZ046-743>745-060400-
SOUTHERN LAKE MICHIGAN

STATION/POSITION TIME  TEMP    WIND        PRES    WAVE
                       AIR SEA DIR/SP/G            HT
                 (UTC) (F)     (DEG/KT/KT) (MB)    (FT)
BURNS HARBOR     0240   33     120/  6/ 12 1015.9R

$$

INZ004-005-014>016-021>024-060400-
NORTH CENTRAL INDIANA

CITY           SKY/WX    TMP DP  RH WIND       PRES   REMARKS
GOSHEN         CLEAR     30  27  88 E6        30.00F FOG     WCI  24
LOGANSPORT +   CLEAR     32  30  93 E6        29.96F WCI  26
PERU/GRISSOM   CLEAR     32  32  99 E8        29.94F WCI  25
ROCHESTER +    CLEAR     32  32 100 E7        29.98S WCI  26
SOUTH BEND     CLOUDY    31  30  96 E9        30.00F WCI  23
WARSAW +       CLEAR     30  28  93 E7        30.00S WCI  23

$$

INZ006>009-017-018-025>027-060400-
NORTHEAST INDIANA

CITY           SKY/WX    TMP DP  RH WIND       PRES   REMARKS
ANGOLA *+      CLEAR     28  27  93 E3        30.00F
AUBURN +       CLEAR     30  28  93 E3        30.01F
FORT WAYNE     PTCLDY    29  26  89 E7        30.01S WCI  22
HUNTINGTON +   CLEAR     31  30  96 E5        29.99S WCI  26
KENDALLVILLE + CLEAR     30  29  94 E5        30.00S WCI  25

$$

INZ028-029-035-036-043>045-051>053-060400-
WEST CENTRAL INDIANA

CITY           SKY/WX    TMP DP  RH WIND       PRES   REMARKS
CRAWFORDSVL +  CLEAR     33  33 100 E10       29.92F WCI  24
GREENCASTLE +  CLEAR     34  34 100 E8        29.91F WCI  27
LAFAYETTE      PTCLDY    32  31  96 E8        29.93F WCI  25
TERRE HAUTE    CLEAR     32  28  85 E5        29.91F WCI  27

$$

INZ030>032-037>040-046>048-054>057-064-065-060400-
CENTRAL INDIANA

CITY           SKY/WX    TMP DP  RH WIND       PRES   REMARKS
CP ATTERBURY + CLEAR     32  32 100 SE5       29.94F WCI  27
COLUMBUS       PTCLDY    32  32 100 CALM      29.94F
FISHERS *+     PTCLDY    32  32 100 E3        29.94F
FRANKFORT +    MOCLDY    36  33  89 SE8       29.94F
GREENWOOD *+   PTCLDY    35  32  88 E7        29.94F WCI  30
INDIANAPOLIS   MOCLDY    36  31  82 E12       29.92F
-EAGLE CREEK   CLEAR     35  30  82 E6        29.93F WCI  30
KOKOMO +       CLEAR     32  31  96 E8        29.95F WCI  25
MARION +       CLEAR     33  31  94 E8        29.96F WCI  25
MT COMFORT *+  PTCLDY    34  32  93 E9        29.94F WCI  26
SHELBYVILLE    CLEAR     35  30  82 E9        29.93F WCI  28
ZIONSVILLE +   CLOUDY    32  31  96 E6        29.94F WCI  26

$$

INZ033-034-041-042-049-050-058-059-060400-
EAST CENTRAL INDIANA

CITY           SKY/WX    TMP DP  RH WIND       PRES   REMARKS
MUNCIE         CLEAR     32  29  88 CALM      29.96F

$$

INZ060-061-067>069-081>083-085>088-060400-
SOUTHWEST INDIANA

CITY           SKY/WX    TMP DP  RH WIND       PRES   REMARKS
EVANSVILLE     MOCLDY    42  35  76 E7        29.87F
HUNTINGBURG *+ CLOUDY    41  35  79 E12       29.87F
WASHINGTON +   CLOUDY    38  37  93 E7        29.88F

$$

INZ062-063-066-070>080-084-089>092-060400-
SOUTH CENTRAL AND SOUTHEAST INDIANA

CITY           SKY/WX    TMP DP  RH WIND       PRES   REMARKS
BLOOMINGTON    CLOUDY    37  31  78 E8        29.91F
MADISON *+     CLOUDY    41  34  75 E6        29.94F
NORTH VERNON + CLOUDY    39  39 100 E5        29.94F
SEYMOUR +      CLOUDY    37  34  87 CALM      29.93F

$$





USA.gov is the U.S. government's official web portal to all federal, state and local government web resources and services.